Tracking 20721 objects as of 1-Jun-2020
HD Live streaming from Space Station
objects crossing your sky now

FENGYUN 1C DEB

Track FENGYUN 1C DEB now!
10-day predictions


NORAD ID: 33656
Int'l Code: 1999-025DER
Perigee: 767.9 km
Apogee: 906.3 km
Inclination: 98.6 °
Period: 101.5 minutes
Semi major axis: 7208 km
RCS: 0.0162 m2 (small)
Launch date: May 10, 1999
Source: People's Republic of China (PRC)
Launch site: Taiyaun Space Center, China (TSC)

Note: This is SATELLITE DEBRIS
aabbcc
Your satellite tracking list
Your tracking list is empty




NASA's NSSDC Master Catalog

Two Line Element Set (TLE):
1 33656U 99025DER 20143.26618168 +.00000122 +00000-0 +75454-4 0  9990
2 33656 098.6222 172.0209 0096001 144.1404 216.6267 14.18650750338932
Source of the keplerian elements: AFSPC